Home > Weather > Newtown > Past weeks

Flag for United Kingdom Past Weather in Newtown, Wales, United Kingdom — Yesterday and Last 2 Weeks

Now
58 °F

Cool.


Feels Like: 55 °F
Forecast: 52 / 63 °F
Wind: 14 mph from North

Location: Lake Vyrnwy

Current Time: May 31, 2016 at 11:09:08 AM

Latest Report: May 31, 2016 at 10:00 AM


Visibility: 28 mi

Pressure: 30.16 "Hg

Humidity: 66%

Dew Point: 47 °F

Location of NewtownLocation

Past Weather in Newtown — Graph

°F

Newtown Temperature Yesterday

Maximum temperature yesterday: 63 °F (at 2:00 PM)
Minimum temperature yesterday: 47 °F (at 5:00 AM)
Average temperature yesterday: 56 °F

High & Low Weather Summary for the Past Weeks

 TemperatureHumidityPressure
High63 °F (May 29, 2:00 PM)100% (May 17, 9:00 PM)30.24 "Hg (May 17, 9:00 PM)
Low38 °F (May 25, 4:00 AM)51% (May 16, 5:00 PM)29.58 "Hg (May 18, 5:00 AM)
Average51 °F84%29.95 "Hg
* Reported May 16 10:00 AM — May 31 10:00 AM, Newtown, Weather by CustomWeather, © 2016

Note: Actual official high and low records may vary slightly from our data, if they occured in-between our weather recording intervals... More about our weather records

Advertising

Newtown Weather History for the Previous 24 Hours

Scroll right to see more
 ConditionsComfort  
Time TempWeatherWind HumidityBarometerVisibility
10:00 AM
Tue, May 31
58 °FCool.14 mph66%30.16 "Hg28 mi
5:00 AM49 °FCool.9 mph90%30.17 "Hg9 mi
4:00 AM49 °FCool.5 mph90%30.17 "Hg16 mi
3:00 AM50 °FCool.6 mph92%30.16 "Hg12 mi
2:00 AM51 °FCool.9 mph89%30.17 "Hg25 mi
1:00 AM52 °FCool.12 mph91%30.17 "Hg10 mi
12:00 AM52 °FCool.8 mph91%30.17 "Hg16 mi
11:00 PM
Mon, May 30
54 °FCool.12 mph85%30.17 "Hg13 mi
10:00 PM55 °FCool.10 mph78%30.16 "Hg17 mi
9:00 PM56 °FCool.12 mph73%30.13 "Hg47 mi
8:00 PM58 °FCool.14 mph72%30.11 "Hg12 mi
7:00 PM60 °FCool.13 mph68%30.11 "Hg28 mi
6:00 PM61 °FCool.14 mph68%30.10 "Hg9 mi
4:00 PM62 °FCool.12 mph61%30.09 "Hg13 mi
3:00 PM62 °FCool.12 mph60%30.09 "Hg13 mi
2:00 PM63 °FMild.12 mph59%30.08 "Hg12 mi
12:00 PM62 °FRefreshingly cool.10 mph57%30.08 "Hg16 mi
11:00 AM61 °FRefreshingly cool.8 mph58%30.08 "Hg47 mi
Weather by CustomWeather, © 2016

See weather overviewHow to use our weather pages